Location: Aula-Vintri
(58.3875°N, 22.4322°E)
Time: 07:23:19
(UTC+00:00)

Cosmos 2058 - Pass Details

Date: 13 October 2019
Orbit: 562 x 584 km, 82.5° (Epoch: 21 November)

Event Time Altitude Azimuth Distance (km) Brightness Sun altitude
Rises 17:01:16 0° 351° (N) 2,822 6.6 -12.5°
Reaches altitude 10° 17:03:47 10° 4° (N) 1,920 5.6 -12.9°
Maximum altitude 17:07:21 26° 61° (ENE) 1,185 4.1 -13.3°
Enters shadow 17:08:41 22° 91° (E) 1,311 4.1 -13.5°
